sat.trackr.live / text

‹ back to catalog

STARLINK-35464

NORAD 65881 · 2025-223AD

PAYLOAD ACTIVE UNKNOWN

§ Identity

Operator
Country
US
Launch date
2025-10-03
Launch site
AFWTR
Launch vehicle
Mass (kg)
RCS (m²)

Purposes: comms

External: N2YO · Heavens-Above · Gunter

§ Orbital elements

Epoch: 2026-09-20T22:26:22.262496Z

Period
93.85 min
Inclination
53.1582°
Eccentricity
0.0001112
Mean motion
15.34419111 rev/d
Perigee alt
461.9 km
Apogee alt
463.4 km
Semi-major
6,840.8 km
B*
5.2080e-4
RAAN
103.3723°
Arg perigee
91.9330°
Mean anomaly
268.1800°
Rev number
5,415

§ Raw data

STARLINK-354641 65881U 25223AD  26263.93497989  .00017271  00000+0  52080-3 0  99942 65881  53.1582 103.3723 0001112  91.9330 268.1800 15.34419111 54153

JSON: /api/v1/satellites/65881 · /tle

For live sub-satellite position, see the globe view (requires WebGL).

§ Visibility from observer

Set your observer location to see the next 7 days of passes ≥ 10°. The values pass through the URL so the page stays shareable.

No JS? Fill the form by hand. The geolocation button needs JavaScript.